Regional Weather Roundup
Issued by NWS

Home | Current Version | Previous Version | Text Only | Print | Product List | Glossary On
Versions: 1 2 3 4 5 6 7 8 9 10 11 12 13 14 15 16 17 18 19 20 21 22 23 24 25 26 27 28 29 30 31 32 33 34 35 36 37 38 39 40 41 42 43 44 45 46 47 48 49 50
000
ASUS44 KOUN 301810
RWROK

WEATHER ROUNDUP FOR OKLAHOMA
NATIONAL WEATHER SERVICE NORMAN OK
100 PM CDT THU OCT 30 2014

NOTE: "FAIR" INDICATES FEW OR NO CLOUDS BELOW 12,000 FEET WITH NO
      SIGNIFICANT WEATHER AND/OR OBSTRUCTIONS TO VISIBILITY.

OKZ001>007-009>012-014-015-017-301900-
NORTHWEST OKLAHOMA AND THE PANHANDLE

CITY           SKY/WX    TMP DP  RH WIND       PRES   REMARKS
GAGE           SUNNY     71  32  23 NE13G24   30.23S
6HR MIN TEMP:  42; 6HR MAX TEMP:  71;

ENID/WOODRING  MOSUNNY   73  41  31 N18       30.14S
$$

OKZ016-021>023-033>039-044-045-301900-
SOUTHWEST OKLAHOMA

CITY           SKY/WX    TMP DP  RH WIND       PRES   REMARKS
LAWTON/REGL    SUNNY     74  52  46 N7        30.15F
6HR MIN TEMP:  43; 6HR MAX TEMP:  74;

LAWTON/FT SILL SUNNY     75  54  47 VRB5      30.13F
FREDERICK      MOSUNNY   73  53  49 NW10      30.12S
CLINTON        SUNNY     75  37  25 NE20      30.20S
HOBART         SUNNY     74  46  36 N10       30.17F
ALTUS AFB      SUNNY     73  51  45 NE7       30.16F
$$

OKZ018>020-024>031-301900-
CENTRAL OKLAHOMA

CITY           SKY/WX    TMP DP  RH WIND       PRES   REMARKS
OKLAHOMA CITY  SUNNY     73  46  38 NW13      30.15S
6HR MIN TEMP:  45; 6HR MAX TEMP:  73;

OKC/WILEY POST SUNNY     71  44  37 NW12      30.15F
OKC/TINKER AFB SUNNY     71  47  41 NW14      30.14F
STILLWATER     SUNNY     74  39  28 NW9G18    30.13F
GUTHRIE        SUNNY     72  40  31 VRB6      30.14F
$$

OKZ008-013-054>072-301900-
NORTHEAST OKLAHOMA

CITY           SKY/WX    TMP DP  RH WIND       PRES   REMARKS
TULSA          MOSUNNY   71  45  39 W14       30.09S
6HR MIN TEMP:  53; 6HR MAX TEMP:  71;

TULSA/JONES    PTSUNNY   70  46  42 VRB7      30.10F
PONCA CITY     SUNNY     73  38  27 N18G25    30.12F
BARTLESVILLE   SUNNY     73  42  32 CALM      30.09F
MUSKOGEE       MOSUNNY   72  46  39 W18G24    30.11F
$$

OKZ032-040>043-046>053-073>077-301900-
SOUTH CENTRAL/SOUTHEAST OKLAHOMA

CITY           SKY/WX    TMP DP  RH WIND       PRES   REMARKS
ARDMORE/DWNTWN PTSUNNY   70  46  43 W5        30.13F
MCALESTER      MOSUNNY   72  46  39 SW15      30.12F
$$




USA.gov is the U.S. government's official web portal to all federal, state and local government web resources and services.